Precipitable_Water
1.47 1.45 1.42 1.47 1.51 1.53 1.51 1.59 1.61 1.50 1.45 1.49 1.54 1.58 1.58 1.60 1.57 1.55 1.50 1.42 1.24 1.19 1.28 1.28 1.29 1.29 1.28 1.28 1.28 1.32 1.36 1.37 1.39 1.40 1.48 1.48 1.44 1.43 1.39 1.39 1.37 1.38 1.39 1.33 1.35 1.39 1.49 1.52 1.57 1.60 1.64 1.63 1.56 1.49 1.50 1.55 1.55 1.52 1.55 1.57 1.55 1.54 1.52
1.43 1.49 1.50 1.50 1.50 1.53 1.56 1.59 1.64 1.53 1.45 1.47 1.54 1.56 1.56 1.59 1.60 1.58 1.53 1.47 1.31 1.19 1.25 1.25 1.27 1.28 1.28 1.29 1.29 1.30 1.28 1.34 1.37 1.39 1.41 1.43 1.43 1.42 1.37 1.33 1.32 1.33 1.35 1.38 1.42 1.40 1.45 1.48 1.51 1.54 1.58 1.62 1.59 1.56 1.52 1.55 1.54 1.48 1.46 1.49 1.50 1.49 1.47
1.40 1.48 1.53 1.55 1.53 1.55 1.55 1.59 1.62 1.57 1.46 1.44 1.49 1.52 1.55 1.58 1.59 1.62 1.58 1.51 1.40 1.24 1.27 1.24 1.25 1.25 1.28 1.30 1.29 1.28 1.27 1.29 1.29 1.30 1.28 1.30 1.33 1.39 1.40 1.36 1.32 1.33 1.40 1.45 1.49 1.47 1.48 1.45 1.44 1.52 1.53 1.54 1.55 1.58 1.58 1.55 1.59 1.56 1.47 1.46 1.46 1.48 1.48
1.40 1.48 1.54 1.58 1.59 1.59 1.58 1.57 1.62 1.61 1.55 1.49 1.49 1.52 1.56 1.58 1.60 1.67 1.65 1.57 1.47 1.33 1.22 1.24 1.25 1.25 1.27 1.25 1.26 1.27 1.27 1.27 1.26 1.24 1.23 1.24 1.28 1.33 1.36 1.37 1.39 1.40 1.38 1.38 1.46 1.53 1.54 1.50 1.45 1.45 1.52 1.49 1.48 1.53 1.57 1.56 1.58 1.57 1.50 1.49 1.46 1.48 1.51
1.43 1.50 1.54 1.58 1.55 1.58 1.58 1.56 1.58 1.59 1.55 1.56 1.52 1.56 1.60 1.64 1.61 1.63 1.68 1.64 1.58 1.42 1.30 1.25 1.27 1.29 1.29 1.28 1.25 1.28 1.27 1.28 1.28 1.28 1.26 1.25 1.27 1.27 1.28 1.30 1.36 1.38 1.44 1.47 1.45 1.46 1.51 1.50 1.50 1.48 1.48 1.50 1.47 1.44 1.43 1.45 1.49 1.55 1.54 1.52 1.47 1.48 1.50
1.35 1.40 1.48 1.54 1.57 1.56 1.62 1.61 1.62 1.61 1.58 1.55 1.53 1.54 1.59 1.63 1.63 1.59 1.63 1.64 1.61 1.56 1.45 1.33 1.28 1.28 1.27 1.29 1.29 1.27 1.28 1.29 1.34 1.32 1.29 1.29 1.27 1.25 1.25 1.30 1.34 1.38 1.41 1.48 1.50 1.47 1.50 1.53 1.52 1.51 1.50 1.51 1.51 1.50 1.46 1.42 1.44 1.49 1.52 1.55 1.50 1.49 1.47
1.36 1.40 1.43 1.50 1.55 1.58 1.61 1.63 1.62 1.65 1.64 1.61 1.60 1.60 1.62 1.65 1.63 1.64 1.61 1.62 1.62 1.54 1.49 1.38 1.31 1.29 1.28 1.30 1.30 1.30 1.26 1.27 1.31 1.33 1.35 1.33 1.33 1.34 1.37 1.40 1.41 1.42 1.44 1.48 1.51 1.55 1.52 1.51 1.54 1.57 1.54 1.52 1.54 1.54 1.51 1.50 1.49 1.49 1.48 1.50 1.50 1.52 1.49
1.46 1.42 1.44 1.50 1.54 1.57 1.65 1.64 1.63 1.67 1.71 1.67 1.63 1.69 1.72 1.71 1.68 1.77 1.66 1.62 1.59 1.60 1.55 1.45 1.36 1.33 1.32 1.33 1.32 1.30 1.30 1.29 1.32 1.35 1.38 1.35 1.36 1.36 1.43 1.48 1.50 1.52 1.54 1.53 1.58 1.60 1.60 1.59 1.60 1.60 1.64 1.62 1.56 1.54 1.57 1.60 1.57 1.60 1.58 1.55 1.56 1.56 1.57
1.51 1.55 1.57 1.55 1.53 1.56 1.58 1.61 1.64 1.68 1.69 1.68 1.67 1.66 1.70 1.82 1.77 1.76 1.78 1.63 1.62 1.59 1.58 1.51 1.47 1.44 1.43 1.41 1.38 1.34 1.37 1.37 1.36 1.36 1.35 1.34 1.36 1.38 1.43 1.51 1.57 1.63 1.60 1.60 1.62 1.67 1.66 1.67 1.68 1.68 1.68 1.68 1.68 1.64 1.62 1.66 1.68 1.70 1.68 1.66 1.65 1.62 1.60
1.50 1.57 1.64 1.70 1.64 1.55 1.57 1.59 1.64 1.69 1.68 1.64 1.63 1.66 1.68 1.73 1.85 1.82 1.90 1.86 1.73 1.61 1.61 1.60 1.53 1.51 1.47 1.44 1.42 1.41 1.39 1.40 1.43 1.42 1.40 1.35 1.36 1.40 1.46 1.50 1.57 1.64 1.63 1.64 1.66 1.67 1.71 1.74 1.74 1.75 1.76 1.74 1.74 1.72 1.71 1.70 1.74 1.77 1.80 1.73 1.71 1.69 1.66
1.39 1.55 1.62 1.71 1.68 1.64 1.59 1.58 1.59 1.63 1.68 1.67 1.67 1.69 1.72 1.74 1.76 1.81 1.89 1.96 1.88 1.72 1.69 1.65 1.59 1.53 1.49 1.45 1.46 1.44 1.39 1.40 1.46 1.49 1.51 1.49 1.47 1.44 1.48 1.52 1.56 1.63 1.65 1.68 1.68 1.71 1.75 1.79 1.82 1.81 1.80 1.81 1.82 1.83 1.84 1.93 1.95 1.93 1.91 1.90 1.86 1.78 1.78
1.26 1.40 1.50 1.59 1.74 1.68 1.64 1.65 1.66 1.66 1.69 1.71 1.75 1.75 1.75 1.78 1.80 1.86 1.89 1.92 2.17 1.94 1.79 1.80 1.79 1.69 1.58 1.55 1.54 1.53 1.46 1.45 1.47 1.49 1.56 1.60 1.61 1.58 1.56 1.55 1.56 1.59 1.66 1.68 1.67 1.72 1.77 1.77 1.83 1.85 1.85 1.90 1.94 1.92 1.87 1.88 1.81 1.70 1.67 1.82 1.89 1.90 1.87
1.28 1.30 1.44 1.52 1.61 1.68 1.67 1.72 1.68 1.69 1.71 1.74 1.76 1.77 1.78 1.78 1.85 1.87 1.85 1.91 2.08 2.16 1.89 1.74 1.77 1.74 1.74 1.72 1.61 1.61 1.59 1.54 1.53 1.53 1.55 1.61 1.67 1.69 1.69 1.69 1.71 1.70 1.66 1.71 1.70 1.72 1.74 1.75 1.79 1.87 1.86 1.88 1.92 1.96 1.98 2.00 2.02 2.02 1.99 1.88 1.81 1.83 1.84
1.27 1.31 1.36 1.48 1.57 1.59 1.58 1.64 1.72 1.73 1.72 1.73 1.75 1.80 1.81 1.82 1.84 1.88 1.90 1.91 2.03 2.15 2.04 1.91 1.76 1.82 1.73 1.65 1.71 1.79 1.72 1.71 1.76 1.77 1.76 1.72 1.67 1.66 1.72 1.79 1.83 1.82 1.79 1.75 1.75 1.77 1.79 1.81 1.84 1.89 1.91 1.91 1.91 1.96 2.01 2.05 2.04 2.00 1.99 1.97 1.96 1.95 1.95
1.19 1.26 1.31 1.38 1.49 1.54 1.55 1.55 1.60 1.66 1.70 1.72 1.75 1.75 1.80 1.85 1.87 1.92 1.96 2.00 1.94 2.04 1.98 1.90 1.83 1.78 1.82 1.81 1.77 1.86 2.00 1.99 1.87 1.95 1.87 1.89 1.79 1.70 1.72 1.76 1.80 1.79 1.79 1.79 1.80 1.82 1.82 1.84 1.85 1.85 1.86 1.88 1.91 1.93 1.97 1.96 1.99 2.04 2.06 2.05 2.06 2.03 1.90
1.20 1.25 1.30 1.36 1.39 1.48 1.56 1.58 1.58 1.59 1.65 1.71 1.74 1.74 1.77 1.79 1.86 1.88 1.91 1.90 1.90 1.96 2.05 1.92 1.80 1.89 1.95 1.90 1.88 1.90 2.00 2.02 1.99 1.99 1.92 1.93 1.85 1.75 1.74 1.74 1.75 1.74 1.73 1.76 1.78 1.82 1.86 1.86 1.86 1.83 1.79 1.78 1.83 1.88 1.90 1.94 2.02 2.07 2.12 2.13 2.11 2.09 2.04
1.20 1.22 1.28 1.32 1.43 1.48 1.52 1.56 1.58 1.61 1.61 1.62 1.71 1.73 1.79 1.79 1.83 1.89 1.90 1.92 1.96 2.03 2.10 2.00 1.96 2.03 1.94 1.88 1.94 1.95 1.93 1.90 1.85 1.94 1.98 1.98 1.93 1.92 1.88 1.80 1.75 1.70 1.67 1.66 1.65 1.66 1.73 1.76 1.75 1.77 1.78 1.77 1.75 1.74 1.79 1.89 1.97 1.99 2.07 2.13 2.12 2.07 2.02
1.21 1.24 1.28 1.32 1.45 1.53 1.55 1.54 1.58 1.63 1.66 1.79 2.10 2.09 1.93 1.92 1.97 1.99 1.93 1.90 1.88 1.99 2.12 2.02 1.95 1.98 1.98 1.87 1.88 1.85 1.81 1.78 1.86 1.94 1.93 1.91 1.89 1.85 1.84 1.83 1.79 1.73 1.69 1.67 1.65 1.64 1.63 1.60 1.64 1.70 1.73 1.73 1.74 1.73 1.75 1.82 1.89 1.90 1.94 2.02 2.06 2.09 2.08
1.24 1.29 1.31 1.35 1.44 1.48 1.51 1.59 1.57 1.63 1.73 1.79 1.90 2.04 2.04 2.09 2.02 2.00 1.95 1.90 1.87 1.95 1.93 1.84 1.80 1.88 1.93 1.95 1.85 1.75 1.65 1.70 1.76 1.77 1.74 1.81 1.88 1.92 1.90 1.85 1.77 1.73 1.71 1.68 1.72 1.73 1.68 1.65 1.64 1.63 1.67 1.69 1.68 1.70 1.73 1.74 1.83 1.88 1.92 1.92 1.94 1.97 2.01
1.27 1.31 1.35 1.40 1.44 1.45 1.52 1.61 1.62 1.62 1.71 1.79 1.84 1.81 1.90 1.99 1.95 1.99 2.06 1.96 1.90 1.88 1.85 1.79 1.76 1.77 1.83 1.92 1.87 1.80 1.80 1.89 1.90 1.89 1.92 1.93 1.90 1.91 1.89 1.86 1.84 1.89 1.93 1.91 1.88 1.80 1.76 1.74 1.72 1.72 1.69 1.68 1.68 1.67 1.68 1.71 1.79 1.84 1.87 1.88 1.90 1.91 1.93
1.29 1.35 1.37 1.41 1.43 1.47 1.50 1.56 1.57 1.64 1.66 1.75 1.83 1.89 1.93 1.87 1.86 1.89 1.90 1.91 1.90 1.93 1.90 1.89 1.89 1.90 1.97 2.02 2.05 2.05 2.00 1.99 1.96 1.95 1.96 1.96 1.96 1.96 1.97 1.95 1.95 1.95 1.97 1.98 1.92 1.88 1.87 1.86 1.82 1.79 1.78 1.77 1.77 1.69 1.65 1.68 1.73 1.74 1.76 1.84 1.89 1.91 1.93
1.33 1.37 1.39 1.45 1.45 1.43 1.45 1.46 1.52 1.53 1.54 1.67 1.78 1.79 1.81 1.81 1.85 1.81 1.84 1.93 1.92 1.92 1.94 1.95 1.92 1.93 1.97 1.98 2.00 2.00 2.01 2.00 1.98 1.96 1.96 1.96 1.98 1.97 1.96 1.96 1.95 1.94 1.99 2.02 2.00 1.98 1.96 1.94 1.92 1.90 1.89 1.90 1.86 1.78 1.72 1.70 1.69 1.68 1.69 1.72 1.77 1.84 1.89
1.41 1.39 1.45 1.49 1.50 1.47 1.48 1.49 1.50 1.55 1.65 1.67 1.64 1.74 1.82 1.88 1.91 1.86 1.86 1.86 1.88 1.88 1.88 1.88 1.85 1.86 1.87 1.87 1.92 1.97 2.00 1.99 1.97 1.95 1.94 1.93 1.88 1.87 1.89 1.91 1.95 1.98 2.03 2.01 2.00 1.96 1.93 1.90 1.90 1.94 1.94 1.95 1.91 1.86 1.82 1.80 1.76 1.72 1.69 1.70 1.76 1.85 1.91
1.48 1.48 1.46 1.45 1.48 1.47 1.45 1.45 1.49 1.56 1.60 1.61 1.61 1.69 1.76 1.81 1.83 1.81 1.78 1.80 1.89 1.91 1.91 1.90 1.87 1.87 1.89 1.92 1.95 1.97 1.98 1.99 1.98 1.94 1.93 1.91 1.86 1.86 1.89 1.92 1.95 1.96 2.01 1.97 1.96 1.97 2.02 2.04 2.01 2.01 2.04 2.00 1.93 1.89 1.84 1.84 1.85 1.79 1.77 1.75 1.84 1.96 1.98
1.50 1.48 1.46 1.42 1.42 1.40 1.39 1.40 1.42 1.47 1.54 1.57 1.60 1.70 1.77 1.78 1.78 1.77 1.75 1.78 1.83 1.83 1.82 1.80 1.83 1.85 1.86 1.91 1.95 1.97 1.98 1.97 1.93 1.91 1.89 1.86 1.86 1.89 1.91 1.96 1.98 2.01 2.02 2.00 2.01 2.04 2.09 2.10 2.08 2.07 2.09 2.06 2.00 1.97 1.92 1.87 1.85 1.84 1.83 1.79 1.85 1.97 2.03
1.41 1.42 1.45 1.44 1.44 1.44 1.41 1.43 1.41 1.37 1.39 1.44 1.51 1.62 1.67 1.71 1.70 1.69 1.70 1.71 1.75 1.72 1.75 1.81 1.86 1.93 1.96 1.97 1.97 1.98 1.97 1.94 1.90 1.89 1.88 1.87 1.94 1.96 1.94 2.01 2.00 1.98 1.97 1.98 2.01 2.00 2.06 2.06 2.07 2.04 2.06 2.02 2.02 2.02 2.04 1.98 1.88 1.87 1.88 1.88 1.90 1.94 1.96
1.38 1.36 1.35 1.38 1.42 1.44 1.42 1.44 1.44 1.39 1.38 1.40 1.44 1.50 1.55 1.57 1.57 1.58 1.60 1.64 1.63 1.64 1.70 1.77 1.83 1.85 1.87 1.90 1.92 1.92 1.91 1.91 1.89 1.85 1.84 1.87 1.89 1.93 1.95 1.97 1.92 1.89 1.89 1.89 1.92 1.92 1.89 1.90 2.04 2.05 2.02 2.01 2.03 2.05 2.05 1.99 1.95 1.89 1.87 1.88 1.91 1.93 1.92
1.35 1.34 1.35 1.38 1.39 1.39 1.34 1.31 1.34 1.36 1.39 1.43 1.43 1.43 1.44 1.44 1.41 1.42 1.47 1.50 1.50 1.59 1.68 1.71 1.73 1.74 1.75 1.76 1.78 1.81 1.83 1.88 1.92 1.93 1.92 1.93 1.94 1.92 1.91 1.92 1.91 1.86 1.87 1.88 1.86 1.87 1.92 2.04 2.05 1.92 1.90 1.95 1.97 1.97 2.00 2.01 1.92 1.90 1.91 1.92 1.94 1.95 1.96
1.29 1.28 1.29 1.32 1.30 1.32 1.27 1.22 1.22 1.22 1.23 1.26 1.28 1.32 1.35 1.36 1.33 1.35 1.37 1.37 1.42 1.50 1.56 1.61 1.62 1.61 1.61 1.62 1.64 1.68 1.70 1.73 1.76 1.79 1.82 1.81 1.81 1.78 1.75 1.79 1.82 1.85 1.87 1.85 1.80 1.88 1.93 1.92 1.87 1.82 1.83 1.86 1.89 1.90 1.92 1.92 1.90 1.87 1.87 1.90 1.94 1.97 1.95
1.26 1.30 1.31 1.33 1.30 1.26 1.27 1.24 1.24 1.24 1.24 1.20 1.15 1.14 1.16 1.16 1.16 1.19 1.22 1.25 1.36 1.43 1.47 1.48 1.50 1.51 1.50 1.49 1.50 1.53 1.57 1.60 1.64 1.68 1.70 1.71 1.71 1.69 1.66 1.65 1.66 1.69 1.74 1.77 1.77 1.73 1.69 1.71 1.82 1.89 1.85 1.78 1.75 1.81 1.85 1.89 1.90 1.98 1.92 1.88 1.92 1.92 1.90
1.25 1.24 1.24 1.25 1.27 1.28 1.28 1.26 1.23 1.21 1.20 1.22 1.19 1.15 1.13 1.13 1.07 1.02 1.00 1.07 1.15 1.18 1.22 1.28 1.33 1.34 1.35 1.37 1.38 1.39 1.41 1.43 1.45 1.47 1.51 1.55 1.58 1.54 1.54 1.53 1.55 1.52 1.53 1.55 1.58 1.61 1.60 1.63 1.67 1.70 1.71 1.67 1.70 1.75 1.84 1.87 1.79 1.78 1.80 1.80 1.78 1.77 1.78
1.18 1.15 1.15 1.23 1.28 1.28 1.31 1.32 1.31 1.25 1.20 1.19 1.20 1.20 1.21 1.20 1.17 1.10 1.08 1.08 1.07 1.07 1.04 1.01 1.03 1.06 1.09 1.13 1.17 1.20 1.23 1.23 1.24 1.28 1.31 1.35 1.38 1.38 1.39 1.40 1.42 1.42 1.43 1.47 1.49 1.48 1.47 1.48 1.51 1.53 1.52 1.47 1.43 1.43 1.47 1.55 1.59 1.60 1.61 1.63 1.64 1.64 1.66
1.16 1.17 1.17 1.18 1.25 1.28 1.30 1.31 1.30 1.31 1.27 1.22 1.22 1.21 1.24 1.25 1.26 1.25 1.23 1.20 1.16 1.14 1.13 1.10 1.07 1.03 0.98 0.96 0.97 0.99 1.00 0.99 0.98 0.99 1.03 1.06 1.09 1.13 1.16 1.19 1.20 1.21 1.23 1.26 1.27 1.30 1.35 1.35 1.34 1.34 1.35 1.34 1.32 1.27 1.27 1.30 1.36 1.40 1.43 1.49 1.50 1.51 1.51
1.16 1.17 1.20 1.21 1.22 1.23 1.23 1.24 1.22 1.21 1.18 1.18 1.20 1.19 1.19 1.22 1.23 1.23 1.23 1.25 1.24 1.21 1.18 1.14 1.11 1.09 1.07 1.03 0.97 0.91 0.87 0.85 0.84 0.82 0.83 0.85 0.85 0.85 0.88 0.92 0.94 0.95 0.98 1.00 1.03 1.02 1.02 1.04 1.04 1.04 1.07 1.10 1.12 1.10 1.09 1.13 1.16 1.20 1.21 1.23 1.25 1.26 1.31
1.21 1.22 1.21 1.20 1.21 1.22 1.19 1.21 1.21 1.20 1.19 1.18 1.22 1.23 1.25 1.24 1.24 1.22 1.19 1.18 1.21 1.21 1.15 1.13 1.13 1.12 1.11 1.09 1.04 0.97 0.93 0.88 0.83 0.80 0.78 0.77 0.78 0.79 0.81 0.80 0.81 0.81 0.82 0.87 0.89 0.89 0.88 0.85 0.84 0.84 0.86 0.87 0.85 0.84 0.84 0.90 0.92 0.97 1.04 1.06 1.09 1.11 1.13
1.20 1.19 1.23 1.26 1.25 1.19 1.17 1.19 1.18 1.17 1.16 1.18 1.22 1.23 1.23 1.22 1.22 1.21 1.17 1.15 1.16 1.15 1.13 1.13 1.11 1.07 1.04 1.03 0.98 0.94 0.93 0.93 0.91 0.88 0.83 0.79 0.77 0.76 0.79 0.84 0.84 0.82 0.78 0.77 0.81 0.80 0.79 0.76 0.74 0.77 0.78 0.75 0.80 0.83 0.79 0.80 0.86 0.91 0.93 0.96 1.01 1.08 1.13
1.16 1.17 1.22 1.26 1.23 1.22 1.22 1.21 1.21 1.18 1.16 1.17 1.19 1.17 1.15 1.14 1.16 1.16 1.15 1.15 1.15 1.13 1.05 0.98 0.96 0.96 0.96 0.96 0.94 0.94 0.91 0.89 0.89 0.89 0.86 0.82 0.78 0.75 0.75 0.76 0.80 0.82 0.81 0.80 0.79 0.79 0.79 0.79 0.79 0.81 0.81 0.78 0.74 0.81 0.84 0.85 0.86 0.86 0.87 0.90 0.96 1.03 1.09
1.20 1.23 1.26 1.31 1.31 1.30 1.26 1.25 1.24 1.21 1.20 1.20 1.17 1.14 1.12 1.08 1.05 1.04 1.06 1.04 1.02 0.99 0.95 0.92 0.88 0.86 0.88 0.88 0.87 0.85 0.83 0.82 0.81 0.82 0.81 0.79 0.78 0.76 0.73 0.73 0.71 0.72 0.78 0.75 0.69 0.71 0.73 0.74 0.74 0.74 0.75 0.76 0.78 0.78 0.79 0.83 0.86 0.87 0.88 0.90 0.93 0.96 1.01
Wind_Speed
17 19 21 21 20 19 19 20 21 21 19 19 19 19 18 17 17 17 16 16 16 16 16 16 16 16 16 15 15 15 14 14 14 13 12 11 11 11 10 10 9 9 9 8 8 8 8 7 7 6 7 6 6 6 5 5 5 4 4 3 3 3 3
18 18 20 22 22 21 20 20 22 22 21 20 20 20 19 18 18 18 17 16 17 17 17 17 17 16 16 15 15 15 15 14 14 13 12 11 11 11 10 10 10 9 9 8 8 8 7 7 7 7 7 6 6 6 6 5 5 5 4 4 3 3 3
17 18 19 20 22 22 21 20 21 22 22 21 21 21 21 19 19 19 18 17 17 17 17 17 18 17 17 16 15 15 15 14 14 14 13 12 11 11 10 10 10 9 9 9 8 7 7 7 7 7 7 7 6 6 6 6 5 5 4 4 4 4 3
15 17 18 19 20 22 22 21 21 21 22 22 22 22 21 20 20 19 19 19 18 18 18 18 18 18 18 17 16 16 15 15 14 14 14 13 12 12 11 10 10 9 9 9 9 8 8 7 7 7 7 7 7 6 6 6 6 5 5 5 4 4 4
13 15 17 19 20 21 22 23 21 20 22 23 22 22 22 21 21 21 20 20 19 18 18 18 18 18 18 18 17 16 16 16 15 14 14 13 13 12 12 11 11 10 10 9 9 9 9 8 8 8 7 7 7 7 6 6 6 6 6 5 5 5 5
13 15 16 19 20 21 23 24 22 21 21 23 23 22 23 22 22 22 22 21 20 19 19 19 19 19 19 18 18 17 17 16 16 15 15 14 13 13 12 12 11 11 11 10 9 9 9 9 8 8 8 8 8 7 7 7 7 6 6 6 6 6 6
12 14 16 18 19 22 25 25 24 21 20 21 22 22 23 23 23 23 23 22 21 20 20 20 19 19 19 19 19 18 18 17 17 16 15 15 14 13 13 12 11 11 11 10 10 10 10 10 9 9 9 9 8 8 8 8 8 7 7 6 6 6 6
12 13 14 16 17 21 25 26 25 24 21 21 21 21 22 22 23 24 24 23 23 21 21 20 20 20 19 19 19 19 18 18 17 17 16 15 15 14 13 12 12 11 11 11 11 10 10 10 10 10 10 10 10 9 8 8 8 8 8 7 7 7 7
13 13 13 13 15 19 23 25 26 25 23 22 22 22 22 22 23 23 24 23 23 22 21 21 21 20 20 19 19 19 18 18 18 17 17 16 16 15 14 14 13 12 12 12 12 11 11 11 11 11 11 10 10 10 10 9 9 10 10 9 9 9 8
12 14 13 13 13 16 19 23 26 25 23 23 23 23 23 24 23 22 23 23 22 23 22 22 22 21 20 20 19 19 19 18 18 17 17 17 16 16 15 15 14 14 13 13 12 12 12 12 12 12 12 11 11 11 10 10 10 10 10 10 10 10 10
11 12 13 13 14 15 17 20 24 26 25 24 24 24 24 25 24 23 23 22 21 23 23 22 21 21 21 21 20 19 19 19 18 18 18 17 17 16 16 15 15 15 14 14 13 13 13 12 12 12 12 12 12 12 11 11 11 11 11 11 11 11 11
11 10 11 13 14 14 16 18 20 23 25 25 26 26 26 26 25 24 25 23 20 21 23 22 20 19 20 21 21 20 20 19 19 19 18 18 17 17 16 15 15 15 15 15 14 14 13 13 13 13 13 12 12 12 12 12 12 12 13 13 13 12 12
11 10 10 11 13 13 14 16 18 20 22 24 25 26 27 27 26 25 25 24 21 19 21 23 21 19 18 19 20 20 20 19 19 19 18 18 18 17 16 15 14 14 14 14 14 14 14 14 13 13 13 13 12 12 13 13 13 13 13 14 13 13 13
10 10 10 10 11 12 13 14 16 18 20 22 23 26 27 28 28 27 25 25 24 21 19 21 22 21 19 19 19 19 18 18 18 17 17 17 17 17 17 16 15 15 14 14 14 14 15 15 14 14 14 14 14 14 14 14 14 14 13 13 13 13 13
9 9 9 10 11 12 13 14 15 17 19 20 22 24 27 29 29 28 26 25 24 23 21 20 21 21 20 20 20 19 17 16 17 16 17 17 17 17 17 17 17 17 16 16 15 15 15 15 15 15 15 15 15 15 15 14 14 14 13 13 13 14 14
9 9 9 10 10 11 13 14 15 16 18 21 24 25 26 27 29 29 27 25 24 24 23 22 22 22 21 21 21 20 18 17 17 18 18 18 18 18 18 18 18 18 18 17 17 17 17 16 16 17 16 16 16 16 16 15 15 14 14 14 14 14 14
10 10 9 9 10 11 12 13 14 14 15 18 24 29 29 26 27 28 27 27 26 24 23 23 22 22 22 22 21 20 19 19 19 19 19 19 19 19 19 18 18 19 19 19 19 19 19 18 18 17 17 17 17 17 17 17 16 15 14 14 14 15 15
9 9 9 9 9 10 10 12 13 13 12 12 12 21 26 25 24 25 26 27 27 25 23 22 23 22 21 21 22 21 20 19 19 20 20 20 21 20 20 19 19 20 20 20 20 20 20 20 19 19 18 18 18 18 17 17 17 16 16 16 16 16 16
9 8 8 9 9 9 9 11 11 12 13 12 7 10 17 18 20 21 23 25 27 26 23 22 22 21 20 21 21 21 20 20 20 20 21 21 21 21 21 20 20 20 21 21 22 22 22 21 21 20 20 19 18 18 18 18 18 18 17 17 17 17 18
8 8 8 9 9 9 9 9 9 10 12 12 10 9 11 13 15 17 19 22 24 24 23 23 22 21 20 20 20 20 20 20 20 20 21 21 22 22 21 21 21 20 21 21 22 22 22 22 22 22 22 21 20 19 19 20 20 19 19 19 18 19 19
7 7 8 9 9 9 9 8 7 8 9 9 9 9 10 11 13 15 16 19 21 22 22 23 23 21 20 20 20 19 19 20 21 21 21 22 22 22 22 22 21 21 21 22 22 22 23 23 23 23 23 23 22 21 21 21 21 20 20 20 20 20 20
7 6 6 7 8 8 7 7 6 6 6 6 6 6 7 8 11 13 14 15 18 20 20 22 22 21 20 20 20 20 20 20 21 21 21 22 22 22 22 22 22 23 23 23 23 23 23 23 24 24 24 24 23 23 22 22 21 21 21 21 21 21 20
7 6 5 5 6 6 6 6 6 5 4 5 6 6 6 6 8 10 11 13 15 17 18 19 20 20 20 19 19 19 19 20 20 21 21 22 22 22 22 22 22 23 23 23 23 23 23 24 24 24 25 25 25 24 24 23 22 22 22 21 21 21 21
7 7 7 5 5 5 5 4 5 5 4 4 5 6 6 6 7 7 8 10 11 13 15 16 17 18 18 18 17 17 18 18 18 18 19 19 20 20 20 21 22 22 23 23 23 24 24 24 24 23 23 23 24 24 24 24 23 23 22 22 22 22 22
6 7 8 7 5 5 5 5 5 5 4 3 3 4 5 6 6 7 8 8 9 9 10 11 12 13 14 14 15 16 16 16 17 17 17 17 18 18 19 20 20 21 21 22 22 22 22 22 21 21 21 21 22 23 24 24 24 24 23 22 22 23 23
6 6 7 8 7 6 7 6 5 5 4 3 3 4 4 5 6 6 6 8 8 8 8 9 9 10 10 11 11 12 13 14 14 15 15 16 16 16 16 17 18 18 18 19 19 20 20 19 18 16 16 17 19 21 22 23 23 23 23 22 22 23 23
7 6 6 7 8 8 7 7 6 5 4 4 4 4 5 5 6 6 5 5 6 6 7 8 8 8 8 8 8 8 9 10 10 11 12 12 13 13 14 13 13 14 14 15 15 16 16 15 14 12 12 13 14 16 18 19 21 22 22 22 22 22 23
10 8 7 7 8 8 7 7 6 5 5 5 5 5 5 6 6 6 6 5 5 4 5 6 7 6 6 5 4 4 6 6 6 7 7 8 8 9 9 9 9 9 10 10 12 13 12 11 11 10 10 11 11 11 12 14 17 20 21 21 21 21 21
11 10 8 8 8 8 8 8 7 6 5 5 5 5 5 5 5 5 5 5 5 4 4 5 5 4 4 4 3 3 4 4 4 4 5 6 6 6 6 7 7 7 7 8 9 10 10 10 10 9 10 10 10 10 10 10 11 13 15 16 17 17 18
11 11 10 9 8 8 8 8 7 6 6 5 5 5 5 5 4 4 3 3 3 4 4 4 4 4 4 4 4 4 4 4 5 5 5 6 6 6 6 6 7 7 7 8 9 9 9 10 9 9 9 8 8 8 8 8 7 8 8 10 12 14 16
10 10 10 10 10 10 9 8 8 7 7 6 5 4 4 4 4 4 3 3 3 3 3 3 3 3 3 3 3 3 4 4 4 5 5 5 6 5 5 6 6 6 6 7 7 8 8 8 8 9 9 9 8 7 7 8 8 9 8 9 11 12 14
8 10 10 10 10 10 9 8 8 8 7 6 5 4 3 3 3 3 3 3 3 3 3 2 2 2 2 2 2 2 2 2 3 3 3 4 4 4 4 5 5 5 6 6 6 6 6 6 7 8 9 10 10 9 9 9 9 10 10 10 11 11 12
8 10 10 9 9 9 8 8 7 7 7 7 6 5 4 3 2 2 2 2 2 2 2 2 2 1 1 1 1 1 1 1 1 1 2 2 2 3 3 3 4 4 4 5 5 5 5 6 6 7 8 8 9 9 10 9 9 9 10 10 10 10 11
7 9 9 9 8 8 7 7 7 7 7 6 6 5 4 3 2 2 1 1 2 3 2 1 1 1 1 1 0 1 1 1 1 1 2 2 2 2 2 2 3 3 3 4 4 5 5 6 6 7 7 8 8 9 9 9 9 9 10 10 10 10 10
8 8 9 9 9 8 7 7 7 7 7 6 6 5 4 3 2 2 1 1 2 2 2 2 2 1 1 1 1 1 1 1 2 2 2 2 2 3 3 3 4 4 4 4 5 5 6 6 7 7 8 8 9 9 9 9 9 10 10 10 10 10 10
8 9 9 10 10 9 8 8 8 8 7 7 6 5 5 4 3 2 2 2 2 2 2 2 2 2 1 1 1 1 1 2 2 2 2 2 3 3 3 4 4 5 5 5 5 6 6 7 7 7 8 8 9 9 9 9 9 10 10 10 10 10 10
9 9 9 10 10 10 9 8 8 8 7 7 6 5 4 4 4 3 3 2 2 2 2 2 2 2 2 2 2 2 2 2 3 3 3 3 3 4 4 4 5 5 6 6 7 7 7 7 8 8 9 9 9 10 10 10 10 10 10 11 11 11 11
10 10 10 10 10 10 9 9 9 8 7 6 6 5 4 4 4 4 3 3 3 2 2 2 2 2 2 2 2 2 3 3 4 4 4 4 5 5 5 5 5 6 6 7 7 8 8 8 9 9 9 10 10 10 10 11 11 11 11 11 11 12 12
Wind_Direction
226 225 224 225 226 224 221 216 211 210 210 207 207 207 206 201 196 196 198 198 197 197 196 194 193 193 193 193 193 192 192 191 190 190 190 191 193 192 191 191 192 192 190 190 191 191 194 193 192 193 192 190 189 190 189 188 190 192 194 195 195 198 203
225 225 226 227 228 226 223 219 214 212 212 210 208 208 208 204 199 198 199 200 200 200 200 198 196 197 196 196 195 195 196 196 195 195 194 194 194 194 195 194 194 196 194 191 191 193 194 194 194 195 197 198 195 193 192 192 195 199 201 202 205 209 211
227 225 226 228 228 226 222 219 216 214 213 211 209 208 208 206 203 201 201 202 202 201 202 202 200 200 200 199 198 198 198 199 198 199 199 198 197 196 198 199 198 197 198 196 195 195 196 196 195 195 198 202 204 201 199 201 204 207 209 210 212 216 218
236 228 227 227 227 224 219 216 215 215 212 210 209 208 208 208 206 203 203 204 204 203 204 205 204 203 203 202 201 200 200 201 201 201 202 202 202 201 201 202 202 202 203 203 200 200 202 202 201 200 200 204 209 210 208 209 213 216 217 218 221 225 227
244 234 229 228 226 222 218 214 214 215 213 211 210 210 210 210 208 206 205 206 207 206 206 207 207 207 206 206 206 205 204 204 203 203 204 205 205 206 206 206 206 206 207 207 205 204 204 206 209 209 208 209 214 218 220 220 222 223 223 223 227 230 234
247 239 232 230 227 220 217 216 216 215 214 213 213 214 214 212 211 208 207 207 209 209 208 208 209 209 209 209 209 209 208 207 208 207 208 209 209 211 211 211 210 209 210 210 211 211 209 209 212 214 216 219 221 224 226 228 228 229 230 231 232 233 237
248 243 237 233 227 219 216 217 217 215 216 216 216 217 216 214 212 211 209 208 209 210 210 210 210 210 210 211 211 212 212 211 211 211 212 212 213 213 213 214 214 215 215 215 215 216 217 217 217 218 221 225 228 230 231 231 232 233 235 236 237 237 239
251 246 240 235 227 219 217 217 217 216 217 217 216 218 218 216 214 213 211 210 210 212 212 211 211 211 211 211 212 213 214 214 214 215 215 215 215 216 216 217 218 219 220 220 221 221 222 224 225 226 226 228 231 234 235 235 235 236 239 239 239 240 242
256 250 244 237 228 220 218 218 217 216 218 218 217 217 218 218 219 218 215 212 210 211 213 213 212 212 212 212 212 213 213 215 216 217 217 218 218 219 219 221 222 223 224 224 226 227 227 227 228 230 232 232 234 236 238 239 240 240 241 241 240 242 244
259 254 247 238 228 221 218 217 218 218 220 222 221 220 219 220 221 222 220 218 214 212 213 214 213 213 213 213 214 214 214 215 217 218 219 221 221 222 223 224 225 225 227 227 228 230 231 230 230 231 234 236 236 237 240 242 244 245 244 242 242 244 244
258 258 252 242 233 225 219 216 217 219 221 224 224 222 222 221 221 223 223 225 224 218 213 213 214 214 215 215 215 215 215 216 217 218 220 222 223 224 225 226 227 228 229 230 230 231 232 233 234 235 237 238 238 238 241 245 249 253 253 250 248 246 245
258 257 254 247 240 232 223 219 218 219 221 224 225 224 223 221 221 222 222 224 230 224 213 211 213 214 215 216 216 216 216 217 218 219 220 222 223 224 225 228 230 231 231 231 231 231 233 235 237 238 239 240 242 243 246 248 250 255 259 258 254 252 250
262 255 249 245 244 238 230 225 224 224 223 224 225 225 224 222 221 222 222 223 229 227 214 209 212 215 218 219 218 218 218 219 220 221 222 223 223 223 225 227 230 231 232 232 232 232 234 237 238 239 239 242 244 246 249 251 252 255 259 257 254 254 254
266 257 247 243 245 243 238 234 231 230 228 226 225 224 222 222 221 222 222 222 225 225 217 211 212 216 220 221 220 219 221 222 222 222 223 225 225 226 228 230 232 234 235 234 235 235 236 238 240 241 243 245 247 248 250 252 254 257 258 255 252 252 252
269 262 251 246 247 244 240 240 238 238 236 232 228 223 221 222 222 222 222 223 223 222 219 215 216 218 220 220 219 221 225 226 223 223 226 227 229 231 232 234 236 238 239 240 241 241 242 242 243 244 245 248 250 251 251 252 254 255 256 255 253 252 252
269 265 257 252 250 246 240 239 242 244 242 240 234 226 221 220 221 222 224 223 221 220 220 219 219 219 220 219 219 222 225 225 224 226 229 230 233 235 235 237 239 241 242 243 245 247 247 247 247 247 247 249 250 251 251 251 252 253 255 256 255 252 252
270 265 262 260 252 247 242 237 241 244 245 250 240 223 216 218 219 221 222 220 218 218 219 218 218 219 221 221 221 223 225 226 226 228 231 234 236 238 239 240 242 243 244 245 247 249 250 250 249 249 250 250 251 252 251 250 252 253 254 256 256 255 254
272 265 260 259 248 245 243 238 242 241 239 257 243 207 203 211 216 218 219 217 216 216 216 217 218 221 223 224 225 226 226 228 229 231 235 238 240 242 243 244 244 245 246 247 249 250 251 251 251 250 250 251 252 252 251 251 252 253 254 256 258 258 257
273 267 257 251 241 239 241 239 245 241 233 244 246 194 192 202 209 214 216 215 216 218 219 220 221 223 224 226 228 229 228 231 233 235 238 240 243 245 246 247 247 248 249 249 250 251 251 252 251 250 250 251 251 251 251 252 253 254 254 256 258 258 258
267 264 250 242 237 234 236 239 245 240 232 237 242 227 212 206 207 213 218 218 218 220 223 223 222 223 225 228 231 231 232 234 237 239 240 242 245 246 247 248 248 249 250 251 252 252 252 251 251 250 250 250 250 250 250 252 254 254 255 257 257 258 258
254 257 244 235 234 231 231 237 240 235 233 237 239 237 231 221 218 221 223 222 221 222 225 224 222 225 229 233 235 234 235 237 239 241 243 244 246 247 248 249 249 250 252 254 254 254 253 253 252 251 251 250 249 249 250 251 253 255 256 257 258 258 259
237 246 241 228 227 228 225 226 230 229 227 230 232 235 232 224 221 220 221 221 220 221 224 224 225 229 234 237 239 239 238 240 241 244 245 247 248 250 251 252 252 253 254 255 255 254 255 255 254 253 252 250 249 249 249 251 254 256 256 257 259 259 259
224 222 223 217 215 216 212 208 214 221 221 215 212 214 219 219 216 215 217 221 222 221 222 223 227 231 236 239 242 242 241 242 243 245 246 248 250 251 251 252 253 254 254 254 254 255 255 256 256 255 253 250 250 249 249 251 254 256 257 258 259 260 259
218 206 204 204 196 192 189 184 189 199 203 200 203 212 222 221 217 215 216 218 221 220 222 225 229 232 236 239 241 242 242 243 244 245 245 246 248 249 250 251 253 255 255 255 255 256 256 256 256 255 252 250 249 249 250 251 253 255 256 257 259 260 259
217 206 202 202 191 175 171 165 161 166 168 171 189 208 219 220 218 215 212 212 215 215 216 219 223 227 230 234 237 239 242 244 244 244 245 246 248 250 251 253 254 255 256 256 256 256 256 255 253 251 250 250 250 250 250 251 253 255 256 257 258 259 259
214 208 199 197 190 178 172 165 154 149 149 158 179 186 187 193 196 197 200 206 212 214 214 215 217 221 225 230 235 239 243 244 244 244 245 246 248 250 252 253 253 255 257 257 256 253 251 248 245 245 249 252 252 251 251 250 251 254 256 257 259 259 259
204 195 185 183 182 180 180 177 167 156 153 164 176 175 167 163 162 166 173 184 194 204 212 214 217 219 223 230 235 238 241 242 242 244 245 244 245 248 249 252 253 254 256 256 252 246 243 242 242 245 251 257 256 253 251 250 251 253 255 257 259 260 260
197 187 178 178 180 180 179 175 169 160 156 161 167 169 163 149 140 140 142 142 150 174 192 200 205 207 209 212 216 223 232 234 235 239 239 237 240 243 246 250 253 254 255 252 246 241 238 242 249 251 253 258 259 256 254 254 253 253 254 256 259 261 262
198 192 186 179 176 176 176 174 169 162 153 147 146 151 155 148 139 135 130 125 130 145 161 175 186 191 194 197 198 204 214 218 219 223 226 231 239 243 245 249 253 256 254 248 243 239 237 243 253 256 254 258 261 260 259 260 261 259 255 255 257 261 265
199 196 192 183 173 174 176 175 174 170 161 149 138 135 135 134 134 136 136 141 152 155 154 161 171 177 184 194 202 210 219 223 226 231 237 244 251 253 253 253 254 258 256 248 245 245 244 248 255 255 255 261 267 266 261 261 269 271 261 257 259 264 268
197 194 191 184 178 178 178 174 171 169 164 158 150 140 132 126 121 121 125 141 162 165 161 164 167 169 175 184 196 211 223 230 236 241 247 252 256 258 260 259 259 260 260 255 251 249 249 251 253 252 254 259 264 266 263 264 271 273 267 266 269 272 273
196 191 188 186 183 182 181 177 172 170 167 166 164 159 150 137 129 131 138 145 146 143 145 152 155 156 163 173 186 198 205 215 225 233 239 243 247 251 256 260 263 263 262 260 257 255 254 254 254 255 257 258 260 264 268 272 275 273 269 270 274 276 278
197 190 187 183 176 174 176 177 175 172 170 170 172 173 171 166 161 167 183 193 189 174 155 148 153 159 163 170 196 215 219 220 224 232 243 247 249 251 254 260 265 267 267 266 264 261 260 258 257 258 260 262 264 266 269 272 273 271 271 274 275 277 279
201 193 188 183 176 171 171 174 176 173 168 167 170 174 173 168 163 164 175 202 210 206 196 179 175 185 197 211 241 255 258 265 270 270 270 272 276 278 279 280 278 278 279 276 270 266 262 261 261 262 262 265 267 269 271 274 274 273 274 276 278 280 281
197 186 182 183 185 182 176 173 173 173 172 173 174 175 173 170 165 159 143 141 168 183 188 184 170 164 192 240 272 279 274 285 294 290 285 290 295 295 296 298 295 292 290 286 281 277 272 268 266 265 265 266 268 270 273 275 275 276 277 280 282 283 282
184 179 178 181 183 183 179 175 172 170 173 177 179 180 184 188 189 184 174 164 166 175 184 188 184 185 213 247 275 280 273 276 284 288 291 298 303 303 303 303 302 300 297 293 291 289 286 281 277 275 273 273 273 275 276 276 276 277 279 282 284 286 285
180 180 183 185 185 183 180 178 176 174 175 176 178 180 185 190 194 197 199 201 204 209 213 211 212 223 238 252 264 269 273 275 276 279 287 296 305 308 305 304 306 308 307 303 299 295 293 290 288 287 286 283 281 280 280 279 278 279 280 282 285 288 290
183 182 184 188 189 188 185 182 180 180 181 180 180 180 180 185 197 205 209 213 221 229 233 231 228 230 241 257 265 268 275 280 280 281 284 290 298 304 305 304 304 307 311 311 307 304 302 299 296 295 294 291 289 286 284 283 284 285 285 286 289 293 295